Home   Weather   Alajuela   Past weeks

Flag for Costa Rica Past Weather in Alajuela, Costa Rica — Yesterday and Last 2 Weeks

Now
70 °F

Mostly cloudy.


Feels Like: 70 °F
Forecast: 68 / 86 °F
Wind: No wind

Location: Juan Santamaria

Current Time: Apr 24, 2017 at 9:21:48 pm

Latest Report: Apr 24, 2017 at 9:00 pm


Visibility: N/A

Pressure: 30.02 "Hg (26.87 "Hg at 955m altitude)

Humidity: 94%

Dew Point: 68 °F

Location of AlajuelaLocation

Past Weather in Alajuela — Graph

°F

Alajuela Temperature Yesterday

Maximum temperature yesterday: 86 °F (at 1:00 pm)
Minimum temperature yesterday: 68 °F (at 5:17 am)
Average temperature yesterday: 75 °F

High & Low Weather Summary for the Past Weeks

 TemperatureHumidityPressure
High86 °F (Apr 10, 1:00 pm)100% (Apr 18, 7:00 pm)30.06 "Hg (Apr 18, 7:00 pm)
Low64 °F (Apr 21, 4:00 am)32% (Apr 10, 10:00 am)29.88 "Hg (Apr 13, 3:00 pm)
Average75 °F70%29.97 "Hg
* Reported Apr 9 8:00 pm — Apr 24 8:00 pm, Alajuela, Weather by CustomWeather, © 2017

Note: Actual official high and low records may vary slightly from our data, if they occured in-between our weather recording intervals... More about our weather records

Advertising

Alajuela Weather History for the Previous 24 Hours

Scroll right to see more
 ConditionsComfort  
Time TempWeatherWind HumidityBarometerVisibility
8:00 pm
Mon, Apr 24
70 °FMostly cloudy.3 mph100%30.01 "HgN/A
7:00 pm70 °FLight rain. Mostly cloudy.5 mph94%30.00 "Hg3 mi
6:00 pm70 °FThunderstorms. Mostly cloudy.No wind94%29.98 "Hg2 mi
5:00 pm73 °FThundershowers. More clouds than sun.2 mph94%29.95 "Hg5 mi
4:00 pm73 °FLight rain. Fog.12 mph94%29.93 "Hg3 mi
3:00 pm77 °FThunderstorms. Partly sunny.14 mph83%29.91 "Hg3 mi
2:00 pm84 °FScattered clouds.14 mph62%29.90 "HgN/A
1:00 pm86 °FPassing clouds.13 mph59%29.93 "HgN/A
12:00 pm84 °FPassing clouds.12 mph55%29.96 "HgN/A
11:00 am86 °FPassing clouds.5 mph46%29.98 "HgN/A
10:00 am84 °FSunny.12 mph48%29.99 "Hg10 mi
9:00 am81 °FSunny.12 mph54%30.00 "Hg10 mi
8:00 am79 °FSunny.13 mph58%30.00 "Hg10 mi
7:00 am75 °FSunny.6 mph65%30.00 "Hg10 mi
6:00 am72 °FSunny.7 mph73%29.97 "Hg10 mi
5:00 am68 °FClear.6 mph78%29.95 "Hg10 mi
4:00 am68 °FClear.6 mph78%29.94 "Hg10 mi
3:00 am66 °FClear.8 mph83%29.93 "Hg10 mi
2:00 am68 °FClear.7 mph83%29.93 "Hg10 mi
1:00 am68 °FClear.7 mph83%29.95 "Hg10 mi
12:00 am68 °FClear.7 mph88%29.98 "Hg10 mi
11:00 pm
Sun, Apr 23
72 °FClear.8 mph83%30.00 "Hg10 mi
10:00 pm72 °FClear.5 mph88%30.01 "Hg10 mi
9:00 pm72 °FPassing clouds.5 mph88%30.00 "HgN/A
Weather by CustomWeather, © 2017

See weather overviewHow to use our weather pages